Regional Weather Roundup
Issued by NWS

Home | Current Version | Previous Version | Text Only | Print | Product List | Glossary On
Versions: 1 2 3 4 5 6 7 8 9 10 11 12 13 14 15 16 17 18 19 20 21 22 23 24 25 26 27 28 29 30 31 32 33 34 35 36 37 38 39 40 41 42 43 44 45 46 47 48 49 50
000
ASUS45 KBOU 051307
RWRCO

WEATHER ROUNDUP FOR COLORADO
NATIONAL WEATHER SERVICE DENVER/BOULDER CO
600 AM MST FRI FEB 05 2016

NOTE: "FAIR" INDICATES FEW OR NO CLOUDS BELOW 12000 FEET WITH NO
SIGNIFICANT WEATHER AND/OR OBSTRUCTIONS TO VISIBILITY.

COZ001>005-013-030-031-051400-
...NORTHWEST COLORADO...

CITY           SKY/WX    TMP DP  RH WIND       PRES   REMARKS
CRAIG          CLOUDY    11   8  88 E5        30.39R WCI   3
HAYDEN         CLOUDY    12   9  85 CALM      30.37R
MEEKER         CLOUDY    11   9  92 CALM      30.39R
MOUNT WERNER   NOT AVBL
STEAMBOAT SPGS CLOUDY     8   5  87 CALM      30.37R
WALDEN         CLOUDY     1  -4  78 CALM      30.28R
$$

COZ006>008-011-051400-
...WEST CENTRAL VALLEYS...

CITY           SKY/WX    TMP DP  RH WIND       PRES   REMARKS
GRAND JUNCTION CLOUDY    16  15  96 CALM      30.50R FOG
MONTROSE       CLOUDY     8   5  87 SE5       30.48R WCI   0
EAGLE          CLOUDY     0  -2  92 CALM      30.43R
RIFLE          LGT SNOW  14  10  84 SW3       30.46R FOG
DELTA          CLOUDY    13   9  85 NE3       30.50R
NUCLA          FLURRIES  10   7  85 SE6       30.48R WCI   1
$$

COZ017>023-064>068-051400-
...SOUTHWEST COLORADO...

CITY           SKY/WX    TMP DP  RH WIND       PRES   REMARKS
DURANGO        CLOUDY    -2  -8  76 CALM      30.33R
CORTEZ         CLOUDY     1  -3  83 NE9       30.40R WCI -14
PAGOSA SPRINGS CLOUDY    -5 -10  78 CALM      30.27R
TELLURIDE      LGT SNOW  15   6  65 N7        30.27S WCI   6
WOLF CREEK PAS CLOUDY     1  -8  66 N25G37    30.12R HAZE    WCI -22
$$

COZ009-010-012-014-032>034-037-058>063-051400-
...CENTRAL COLORADO...

CITY           SKY/WX    TMP DP  RH WIND       PRES   REMARKS
ASPEN          LGT SNOW  10   7  87 CALM      30.32R FOG
BUENA VISTA    CLOUDY    17   4  56 N21G26    30.24R WCI  -1
COPPER MTN     CLOUDY     3  -6  66 NW15      30.12R WCI -15
BERTHOUD PASS  CLOUDY    -4 -15  59 N17G26    30.09R WCI -26
COTTONWOOD PAS CLOUDY    18  -6  35 W9G22     30.17R WCI   6
GUNNISON       CLOUDY   -17 -20  83 CALM      30.38R
KREMMLING      FLURRIES  -6  -9  84 CALM      30.35R
LEADVILLE      CLOUDY     5  -1  76 N9        30.19R WCI  -9
MONARCH PASS   CLOUDY     0  -6  78 MISG      30.20R
SALIDA         CLOUDY    13   1  59 SW10      30.34R WCI   0
SUNLIGHT       LGT SNOW N/A N/A N/A CALM        N/A
WILKERSON PASS CLOUDY     3  -4  72 N13G21    30.12R WCI -14
$$

COZ069>075-051400-
...SAN LUIS VALLEY/SANGRE DE CRISTO MOUNTAINS...

CITY           SKY/WX    TMP DP  RH WIND       PRES   REMARKS
ALAMOSA        CLOUDY   -10 -15  78 S6        30.24R WCI -23
LA VETA PASS   LGT SNOW   7   3  85 MISG      30.10R
SAGUACHE       CLOUDY    10   1  67 NW9       30.25R WCI  -2
$$

COZ035-036-038>040-051400-
...NORTHERN COLORADO FRONT RANGE...

CITY           SKY/WX    TMP DP  RH WIND       PRES   REMARKS
DENVER INTL AP CLOUDY    24  12  60 W5        30.24R WCI  18
DMNS CITY PARK   N/A     25  14  63 SW2       30.25R
AURORA         CLOUDY    25  11  57 W3        30.24R
FRONT RANGE AP NOT AVBL
ERIE MUNI ARPT CLOUDY    19  14  82 CALM      30.26R
BOULDER MUN AP CLOUDY    27  14  59 CALM      30.24R
CENTENNIAL     CLOUDY    24  10  55 W5        30.23R WCI  18
BROOMFIELD     CLOUDY    28   5  37 W5        30.24R WCI  23
FORT COLLINS   CLOUDY    21  10  63 N5        30.26R WCI  15
LONGMONT       CLOUDY    21  14  75 CALM      30.28R
$$

COZ041-046-047-076>085-087-088-051400-
...PIKES PEAK/PALMER DIVIDE AND SOUTHERN FOOTHILLS...

CITY           SKY/WX    TMP DP  RH WIND       PRES   REMARKS
COLO. SPRINGS  CLOUDY    23   9  55 N13       30.23R WCI  11
A. F. ACADEMY  CLOUDY    22  11  60 NW8       30.21R WCI  13
SCHRIEVER AFB  PTSUNNY   22  11  64 N12       30.22R WCI  10
ELLICOTT       NOT AVBL
FALCON         CLOUDY    20  10  65 N10       30.21R WCI   9
FORT CARSON    CLOUDY    21  19  91 E3        30.22R
LIMON          CLOUDY    23  21  92 NW8       30.23R WCI  14
MONUMENT HILL  CLOUDY    19  10  68 N7        30.21R WCI  10
TRINIDAD       LGT SNOW  24  21  88 NE8       30.21R FOG     WCI  15
$$

COZ042>045-048>051-090-091-051400-
...NORTHEAST COLORADO...

CITY           SKY/WX    TMP DP  RH WIND       PRES   REMARKS
GREELEY ARPT   CLOUDY    16  12  86 W3        30.27R
AKRON          CLOUDY    20  17  88 W14       30.23R WCI   7
BURLINGTON     CLOUDY    26  22  84 W6        30.25R WCI  19
WRAY           CLOUDY    28  26  94 W6        30.25R WCI  21
STERLING       CLOUDY    23  19  86 CALM      30.25R
HOLYOKE        CLOUDY    27  21  80 W10       30.24R WCI  17
FORT MORGAN    CLOUDY    22  15  73 NW8       30.26S WCI  12
$$

COZ086-089-092>099-051400-
...SOUTHEAST COLORADO...

CITY           SKY/WX    TMP DP  RH WIND       PRES   REMARKS
PUEBLO         CLOUDY    26  22  84 CALM      30.26R
LA JUNTA       LGT SNOW  28  26  92 NW8       30.26R FOG     WCI  20
LAMAR          CLOUDY    25  16  68 NW6       30.23R WCI  18
SPRINGFIELD      N/A     20  12  71 N22       30.16R WCI   3
$$



USA.gov is the U.S. government's official web portal to all federal, state and local government web resources and services.